CAPE
99 157 217 263 255 302 377 604 822 1102 999 768 721 1017 995 1107 949 1286 1384 1477 1840 1989 2162 1622 1538 1369 1384 1174 1164 1336 641 1070 1225 1084 999 862 727 706 688 675 620 530 347
67 50 105 211 212 306 321 551 880 1167 895 866 686 675 1048 1056 1107 1310 1468 1376 1511 1910 2038 1997 1448 1081 670 796 1218 1495 735 602 1157 1097 1279 967 926 901 636 511 506 543 336
140 104 138 222 210 254 366 578 825 967 1020 877 637 1096 1232 1166 1187 1369 1327 1419 1493 1798 2276 1980 1421 910 527 561 1067 939 644 500 644 896 894 608 431 543 432 417 244 327 377
184 98 295 286 223 262 414 543 651 911 1020 996 824 966 1107 1146 1191 1286 1350 1357 1541 1774 1885 2138 1632 1056 603 1055 1106 1078 785 820 638 568 276 506 491 473 314 758 455 749 851
220 137 259 335 336 331 443 606 596 826 1128 1081 1224 1115 1299 1227 1355 1151 1404 1502 1773 1966 1720 2094 1900 1280 869 927 1712 408 1314 964 1060 179 344 319 423 627 991 486 593 811 974
274 152 134 287 419 410 490 652 800 966 1167 1180 1261 1431 1474 1540 1273 1334 1160 1262 1411 1679 2043 2101 2158 1725 1325 644 970 1297 1616 1314 1412 572 378 949 1090 1093 1194 1098 854 803 824
265 219 179 108 415 410 536 688 963 1109 1106 1081 1161 1467 1485 1604 1605 1917 1330 1384 1331 1271 1572 2155 2439 1928 1738 1198 1008 2117 2320 1790 1882 2116 1482 1309 1416 1375 1362 1274 730 831 549
269 283 297 345 618 634 691 746 913 1160 1115 1172 1317 1644 1581 1381 1251 1364 1242 1288 1275 1322 1652 1921 2191 2280 2105 1792 1822 2084 2284 2148 2596 2209 2246 1621 1670 1571 1717 1508 1279 660 473
303 369 329 431 597 518 775 919 983 1102 1104 1077 1345 1551 1627 1540 1292 1463 1420 1080 1281 1066 1637 1592 1914 2022 2146 2121 2056 1924 2545 2197 2226 1994 2084 1931 1514 1774 2216 1731 1471 1112 699
439 437 437 470 617 689 784 603 759 1063 1105 1027 1106 1176 1243 1406 1493 1561 1520 1296 1244 1543 1323 1481 1489 1720 1764 1976 2099 1702 1860 2201 2113 1783 2062 2103 1602 1618 1783 1788 2065 1309 1226
815 566 605 639 700 759 720 831 740 933 1052 1085 1124 1131 1123 1117 1199 1299 1431 1460 1443 1604 1586 1625 1628 1614 1742 1888 2187 2062 1713 2073 2188 2184 2061 2040 2068 1540 1395 2099 2081 2396 2049
925 830 681 740 705 816 808 695 824 781 911 1081 1384 1177 1195 1247 1152 1366 1441 1530 1479 1440 1580 1696 1732 1781 1767 2027 2137 1839 1568 2067 1992 2078 2076 2084 2059 2016 2215 2724 2071 1438 1987
892 897 862 744 755 756 867 787 767 654 676 995 601 999 1008 1188 1234 1280 1454 1560 1576 1617 1430 1467 1739 1904 2015 1909 2015 2016 2061 1929 2037 1894 1823 1857 1942 2126 2290 2107 2154 2132 1437
849 981 878 849 795 808 864 833 793 783 693 989 1069 1006 957 1083 1113 1669 1739 1484 1671 1596 1599 1625 1568 1666 1932 1849 1997 1813 1930 1902 1640 2023 2102 1899 1729 1725 1020 1564 1794 1645 1613
856 894 898 852 774 751 736 942 1098 880 749 857 1028 1351 1254 909 1180 1129 1262 1202 1324 1555 1793 1993 1645 1718 2141 1714 1771 1931 1925 1878 1805 1842 1739 1667 750 481 255 1442 1575 1611 1348
777 717 580 226 86 158 317 713 778 886 1338 967 1005 1263 1396 1070 1130 1429 1303 1118 1088 1266 1309 1422 1517 2082 1894 1086 540 843 1534 1910 1957 1754 1620 862 125 5 0 0 0 0 409
757 629 294 37 83 7 2 23 54 354 467 895 1069 1316 1433 1380 1604 1398 1428 1164 1157 1232 1272 1329 1457 1692 2244 497 285 168 1803 2034 1698 1528 1429 561 0 0 246 3 0 0 0
553 251 171 36 3 4 36 88 148 193 253 290 338 409 550 1003 1298 1459 1319 1193 1063 1054 1173 1230 1593 1480 1887 0 0 0 1379 1189 592 457 325 75 0 0 0 122 134 0 0
215 56 7 4 4 6 2 2 67 45 13 5 5 7 36 266 563 790 1236 1395 1008 1135 1135 1031 1591 1402 390 1 1 0 646 61 8 3 0 0 0 0 0 0 25 4 0
0 2 1 2 2 3 3 2 1 9 3 5 6 10 13 10 12 336 257 512 958 1082 1084 1008 1099 760 5 1 1 0 8 10 7 1 0 0 0 0 0 0 0 0 0
2 1 0 2 2 2 6 6 17 18 11 5 12 12 10 9 14 11 127 180 165 116 11 2 7 7 7 3 1 0 11 10 10 5 0 0 0 0 0 0 0 0 0
1 0 0 2 2 0 14 91 31 20 5 9 9 9 6 7 4 13 45 25 5 3 1 1 5 4 5 1 1 0 1 1 1 0 0 0 0 0 0 0 0 0 0
6 2 0 3 2 0 69 146 49 58 48 11 6 6 4 2 2 8 9 3 1 1 2 1 1 2 2 1 0 1 0 0 2 4 0 0 0 0 0 0 0 0 0
3 1 1 2 10 5 42 240 98 115 145 7 4 4 7 2 0 1 3 1 1 1 1 1 2 2 1 1 1 1 1 0 1 0 0 0 0 0 0 0 0 0 0
0 0 4 6 6 7 35 96 48 123 158 6 6 4 7 6 2 1 0 1 0 1 3 5 3 2 1 0 0 0 0 0 0 0 0 0 0 0 0 0 0 0 0
0 2 3 4 4 6 9 49 123 89 39 2 2 4 2 4 3 0 0 0 0 0 1 1 0 0 0 0 0 0 0 0 0 0 0 0 0 0 0 0 0 0 0
CIN
-57 -60 -64 -59 -82 -94 -96 -91 -63 -36 -35 -48 -45 -29 -26 -33 -40 -33 -37 -33 -27 -22 -22 -22 -31 -47 -36 -54 -59 -50 -73 -43 -77 -30 -29 -49 -80 -76 -87 -90 -91 -103 -116
-72 -103 -93 -69 -104 -99 -114 -109 -85 -48 -52 -43 -71 -56 -35 -37 -29 -28 -36 -34 -25 -21 -17 -23 -27 -53 -39 -65 -60 -63 -42 -60 -81 -27 -28 -5 -16 -52 -69 -108 -107 -103 -107
-69 -112 -127 -102 -110 -112 -118 -118 -115 -94 -71 -72 -80 -53 -49 -61 -47 -32 -26 -21 -26 -17 -16 -23 -34 -59 -84 -36 -53 -65 -86 -25 -73 -107 -35 -11 -13 -36 -65 -83 -99 -104 -72
-97 -145 -109 -120 -128 -127 -111 -111 -132 -113 -90 -78 -59 -53 -21 -18 -25 -24 -27 -21 -26 -13 -11 -15 -34 -59 -63 -54 -51 -62 -79 -81 -30 -70 -115 -125 -99 -13 -15 -25 -41 -54 -36
-99 -125 -134 -147 -123 -124 -110 -114 -154 -122 -80 -84 -49 -38 -23 -14 -17 -28 -33 -31 -23 -17 -14 -20 -26 -46 -42 -59 -30 -100 -56 -53 -35 -70 -67 -99 -74 -82 -21 -11 -14 -11 -17
-149 -148 -181 -155 -117 -120 -111 -117 -146 -140 -95 -81 -63 -36 -24 -22 -18 -25 -22 -13 -15 -9 -15 -11 -21 -34 -35 -60 -45 -36 -28 -36 -33 -50 -59 -20 -7 -4 -3 -3 -10 -13 -13
-187 -165 -166 -296 -138 -187 -186 -136 -143 -130 -116 -88 -55 -44 -33 -21 -20 -20 -13 -12 -12 -15 -15 -15 -17 -20 -31 -43 -42 -15 -15 -27 -16 -15 -10 -17 -8 -10 -3 -1 -2 -3 -11
-190 -197 -136 -137 -145 -128 -157 -141 -142 -130 -122 -91 -73 -44 -33 -23 -25 -20 -12 -12 -14 -11 -18 -12 -13 -16 -19 -25 -22 -11 -6 -5 -2 -9 -2 0 0 -1 0 0 0 0 0
-220 -191 -167 -127 -152 -204 -126 -187 -144 -140 -126 -109 -62 -45 -37 -35 -30 -32 -32 -19 -25 -17 -24 -19 -17 -15 -17 -17 -13 -4 -5 -4 -1 -1 0 0 0 0 0 0 0 0 0
-268 -245 -190 -142 -129 -134 -118 -193 -184 -140 -136 -130 -102 -70 -53 -43 -30 -27 -31 -30 -26 -32 -33 -28 -23 -15 -16 -13 -14 -6 -5 -6 0 0 0 0 0 0 0 0 0 0 0
-209 -246 -219 -180 -163 -169 -147 -139 -171 -146 -118 -114 -115 -87 -54 -40 -38 -29 -35 -32 -27 -30 -34 -30 -27 -25 -17 -18 -13 -13 -7 -3 -1 -1 -2 0 0 0 0 0 -1 -1 0
-215 -220 -218 -204 -212 -201 -171 -150 -119 -122 -127 -84 -103 -146 -95 -47 -35 -23 -25 -31 -36 -31 -32 -26 -25 -18 -20 -21 -12 -15 -8 -5 -2 0 -1 0 -1 0 -1 0 -3 0 -3
-231 -221 -224 -219 -210 -185 -163 -137 -101 -118 -109 -101 -191 -155 -139 -86 -64 -40 -29 -26 -25 -26 -20 -24 -20 -15 -17 -20 -12 -22 -12 -7 -5 -1 0 0 0 0 -1 0 0 0 0
-233 -210 -223 -224 -210 -198 -170 -138 -103 -82 -70 -56 -78 -131 -129 -90 -71 -38 -42 -49 -37 -21 -17 -15 -16 -16 -11 -9 -9 -17 -9 -5 -2 -6 -3 -1 0 -1 -27 -2 0 0 0
-198 -205 -191 -189 -195 -186 -171 -125 -89 -100 -69 -26 -30 -27 -41 -44 -23 -20 -19 -51 -36 -47 -24 -10 -14 -12 -6 -6 -5 -6 -8 -7 -2 -1 -6 -14 -49 -69 -112 -1 0 0 0
-193 -205 -215 -292 -330 -281 -218 -115 -105 -94 -42 -47 -25 -7 0 -2 -9 -1 -1 -24 -24 -14 -27 -20 -21 -1 -8 -17 -74 -42 -6 -3 0 -3 -3 -18 -105 -1 0 0 0 0 -2
-156 -174 -246 -349 -291 -139 0 -281 -238 -141 -129 -67 -46 -19 -4 0 0 0 -2 -9 -5 -13 -10 -1 -15 -9 0 -94 -133 -142 -10 -3 -4 -2 0 -5 0 0 -19 -9 0 0 0
-162 -229 -239 -299 0 0 -244 -198 -141 -113 -97 -87 -80 -81 -57 -14 -6 0 0 -2 -1 -6 -6 -5 0 -10 -1 0 0 0 -15 -2 -15 -18 -22 -43 0 0 0 -16 -8 0 0
-195 -255 -53 -3 0 0 0 0 -164 -170 -65 0 0 0 -20 -71 -32 -20 0 0 -2 -1 0 -2 0 -2 -34 0 0 0 -14 -72 0 0 0 0 0 0 0 -8 -46 0 0
0 0 0 0 0 0 0 0 0 -99 0 0 0 0 0 0 0 -38 -43 -1 0 0 0 -2 -3 -12 0 0 0 0 0 0 0 0 0 0 0 0 0 0 0 0 0
0 -10 -5 0 0 0 0 -56 -147 -190 -14 0 0 0 0 0 0 0 -78 -33 -7 -9 -35 0 0 0 0 0 0 0 0 0 0 0 0 0 0 0 0 0 0 0 0
-3 -9 0 -1 0 0 -87 -128 -170 -166 0 0 0 0 0 0 0 0 -53 -3 -4 0 0 0 0 0 0 0 0 0 0 0 0 0 0 0 0 0 0 0 0 0 0
0 -10 -1 -2 -1 0 -146 -77 -126 -107 -125 0 0 0 0 0 0 -31 -51 0 0 0 0 0 0 0 0 0 0 0 0 0 0 0 0 0 0 0 0 0 0 0 0
0 0 0 0 0 -3 -168 -68 -79 -71 -38 0 0 0 0 0 0 0 0 0 0 0 0 0 0 0 0 0 0 0 0 0 0 0 0 0 0 0 0 0 0 0 0
0 0 0 0 0 -52 -168 -94 -134 -59 -27 0 0 0 0 0 0 0 0 0 0 0 0 0 0 0 0 0 0 0 0 0 0 0 0 0 0 0 0 0 0 0 0
0 0 0 0 0 0 -33 -119 -67 -92 -104 0 0 0 0 0 0 0 0 0 0 0 0 0 0 0 0 0 0 0 0 0 0 0 0 0 0 0 0 0 0 0 0
Wind_Speed
15 14 14 13 12 12 12 13 12 11 8 6 5 5 5 4 4 4 5 4 4 5 4 2 2 1 3 3 3 2 2 2 1 2 3 4 5 6 6 4 4 5 5
15 14 15 15 15 14 13 13 13 13 10 7 5 4 4 4 4 4 5 5 5 5 4 4 3 3 3 3 3 3 2 0 3 2 2 3 2 3 5 4 5 7 6
17 14 16 17 15 15 16 15 15 14 12 10 5 3 3 2 4 5 5 6 6 7 6 5 4 3 3 4 4 3 3 2 1 1 3 2 3 4 1 0 2 5 4
15 12 16 17 18 17 15 14 13 13 12 12 9 10 7 6 6 6 5 5 7 7 6 6 5 4 3 4 4 3 3 3 3 1 1 2 3 3 4 1 1 4 4
17 16 17 18 18 15 16 14 14 13 13 13 12 10 10 6 4 5 7 6 6 7 6 6 5 4 4 4 4 3 4 3 2 1 1 1 1 1 3 5 5 5 3
18 17 15 13 14 13 14 14 14 13 14 14 15 14 12 10 6 6 6 6 5 6 8 7 6 5 4 4 4 4 4 3 2 1 3 2 2 1 3 4 5 6 5
19 17 16 11 15 13 15 16 17 16 15 15 15 15 14 12 11 8 7 7 6 6 8 8 7 6 6 5 5 6 5 5 4 4 3 3 3 3 4 5 6 6 5
18 19 19 17 16 18 18 16 17 16 16 16 16 14 14 10 10 10 8 7 7 8 9 9 8 8 7 7 6 6 5 5 5 5 4 4 4 4 5 5 5 7 5
16 18 17 17 16 14 19 16 16 15 15 15 13 14 13 13 11 11 9 7 8 7 9 9 9 9 8 8 7 7 6 6 6 6 6 6 5 4 5 5 5 5 8
12 14 16 16 14 16 16 14 14 17 17 15 13 13 14 14 13 11 11 10 9 9 8 9 9 10 9 9 9 8 8 7 6 6 7 7 5 5 4 5 4 5 7
9 11 11 12 13 13 15 16 16 16 14 14 14 14 13 14 13 12 12 11 10 9 9 10 10 11 11 11 10 10 9 9 9 8 9 8 7 6 5 5 6 5 5
5 6 9 10 10 12 13 15 14 13 11 11 13 14 14 14 15 15 14 12 11 11 10 9 10 10 11 11 10 11 10 10 11 10 9 9 6 9 7 5 8 6 5
3 3 4 5 7 9 10 11 12 10 12 11 8 12 14 15 16 16 15 13 12 12 11 11 12 12 11 10 10 11 10 10 10 10 9 10 9 9 6 5 6 5 5
4 4 4 2 2 5 6 7 9 8 10 11 14 11 12 15 16 15 15 15 15 14 13 13 12 12 11 11 10 10 10 11 10 10 9 9 8 5 4 6 5 5 5
4 5 5 4 4 3 1 1 5 8 11 13 13 14 13 13 14 13 14 13 14 14 15 14 14 12 11 9 12 10 10 9 10 8 7 4 4 2 3 3 3 4 5
3 4 5 5 5 5 4 3 1 2 4 10 13 14 12 12 14 13 14 14 14 15 14 15 15 14 10 10 10 9 9 9 8 7 5 6 6 5 5 6 5 3 4
5 5 5 5 5 4 3 3 2 1 3 5 7 11 13 14 15 14 14 14 15 13 13 15 15 15 13 11 10 10 8 7 5 2 6 5 4 1 2 6 7 7 9
6 6 6 5 4 3 3 3 3 4 4 5 8 10 12 15 16 15 14 14 14 15 14 15 15 14 10 11 10 9 7 4 4 5 6 6 5 5 1 2 4 5 5
4 5 5 5 3 1 2 3 3 4 5 7 8 10 12 15 14 15 15 13 11 14 15 14 15 14 10 12 11 11 9 8 8 7 7 8 7 6 6 4 4 6 4
6 6 5 3 2 0 3 2 3 5 6 7 9 10 12 16 15 15 15 13 13 13 9 8 9 10 12 12 13 11 8 10 7 8 9 8 7 7 8 6 5 5 3
6 5 4 3 2 3 3 2 2 4 6 8 10 11 13 17 19 15 13 11 11 8 8 8 7 8 9 10 13 11 9 9 9 8 6 6 7 8 7 5 3 2 2
6 6 5 5 4 4 4 3 1 5 6 8 9 11 11 9 8 14 10 9 8 10 10 10 7 4 5 5 8 10 8 12 10 8 5 4 5 4 4 1 4 3 2
5 4 4 4 4 4 5 4 1 3 5 9 10 11 10 10 11 2 6 7 8 9 9 9 9 7 6 9 21 18 15 12 10 8 6 6 2 5 5 5 5 3 5
3 3 4 5 5 4 5 4 3 2 6 9 9 9 9 10 11 9 6 5 4 8 8 11 10 8 7 10 9 9 10 13 8 7 3 4 8 3 6 5 5 5 5
2 2 3 4 4 4 4 5 3 4 7 6 9 8 9 9 11 13 9 9 8 6 7 8 8 8 9 7 14 12 11 8 4 0 0 5 4 6 5 6 5 5 5
3 3 3 3 3 3 5 5 4 5 4 5 7 8 7 7 7 11 13 28 27 26 27 24 17 11 12 15 9 19 14 9 6 2 5 6 6 6 6 6 6 5 5
Wind_Direction
221 218 214 207 201 197 194 201 194 199 196 187 196 216 212 199 218 217 213 165 178 180 204 243 255 272 291 329 308 322 331 26 18 238 238 249 248 257 266 276 283 291 298
223 214 209 204 204 198 198 201 202 191 199 205 195 214 206 209 219 211 210 179 198 204 205 243 246 246 270 277 291 276 281 35 10 321 296 305 242 246 264 273 280 289 294
222 206 201 202 198 202 198 200 198 195 195 206 199 172 173 133 198 204 213 205 199 210 200 216 238 238 259 265 267 259 245 271 171 39 315 280 320 328 149 36 312 303 308
225 203 200 200 200 202 198 201 201 200 196 193 205 210 216 208 205 205 206 212 208 215 207 213 216 211 239 259 254 238 246 248 273 163 58 24 339 326 307 180 337 311 320
213 210 203 201 202 195 197 200 197 200 199 196 205 212 224 234 223 202 209 210 203 205 214 210 210 211 227 229 238 228 226 198 299 237 210 235 234 238 294 310 338 328 335
209 209 207 192 201 194 198 198 197 199 200 201 202 212 222 224 219 204 204 204 200 198 211 213 209 215 219 223 220 226 235 235 243 235 216 262 295 294 283 291 318 323 322
202 201 195 182 192 197 200 196 197 199 200 205 210 212 219 225 223 224 220 209 209 209 211 207 210 215 211 221 232 223 213 226 237 231 263 255 261 275 285 292 306 303 321
203 199 202 197 197 201 201 201 202 202 199 203 209 212 218 222 225 228 234 231 224 221 211 208 218 219 217 218 227 237 233 219 224 235 250 270 255 241 250 271 301 303 299
202 202 199 198 198 199 206 200 199 203 199 205 211 213 215 220 223 225 226 231 242 237 222 206 215 225 222 222 219 235 224 227 231 239 237 243 257 243 241 244 260 290 303
196 203 207 206 202 206 208 200 206 205 201 199 203 213 219 221 225 227 228 225 232 237 228 218 220 228 228 228 219 225 228 228 238 245 236 240 255 259 244 256 243 249 277
201 199 206 212 211 204 204 207 203 206 200 202 204 208 216 224 226 224 223 223 230 232 233 230 226 228 231 229 222 227 238 223 238 242 242 248 242 255 259 260 265 254 236
208 205 213 211 210 209 211 213 215 207 199 209 205 202 208 215 222 223 223 223 221 228 225 230 232 234 236 239 232 229 231 232 239 248 247 252 244 249 251 249 256 255 266
129 172 193 209 225 226 224 225 220 222 210 197 224 213 210 214 221 222 222 221 224 222 229 228 231 236 233 235 226 232 237 242 245 254 252 250 255 255 259 249 268 255 271
103 102 101 128 227 234 232 233 237 223 221 222 232 231 223 223 223 221 216 215 217 223 222 227 234 238 243 239 235 230 232 240 252 254 250 254 255 253 275 282 271 282 274
103 82 80 72 73 82 15 294 240 238 226 223 232 236 236 231 235 232 229 224 230 219 220 220 228 236 239 238 227 230 242 244 248 256 255 225 182 236 349 302 308 302 288
140 111 88 85 79 71 63 79 49 253 238 234 238 245 244 240 235 231 223 221 225 234 228 226 224 225 226 220 222 239 242 242 243 246 171 121 120 122 101 85 71 10 293
193 168 134 128 107 82 57 38 3 329 279 257 253 253 250 247 246 238 236 227 224 222 228 235 225 223 226 175 192 215 239 238 245 210 152 144 104 83 123 131 137 93 71
183 157 148 137 97 94 70 19 39 17 331 292 279 273 263 261 254 249 235 228 233 230 225 225 226 218 219 165 171 181 206 181 123 123 115 119 100 48 27 156 136 90 67
156 151 146 145 141 120 27 353 13 357 337 320 305 296 289 279 257 251 250 240 234 231 226 228 224 211 183 163 155 160 160 141 117 100 100 113 100 42 11 97 112 127 80
145 154 154 144 167 355 326 299 336 334 330 316 298 286 276 269 265 248 236 231 221 222 212 209 223 204 176 164 161 167 144 136 127 113 98 75 97 77 49 86 97 101 43
151 153 166 198 187 257 258 242 357 336 327 329 320 303 289 264 249 251 225 220 217 202 149 132 141 152 159 165 169 163 153 151 142 131 134 116 97 86 80 70 100 121 57
177 183 180 172 177 229 236 169 7 352 357 355 345 335 324 309 234 234 190 203 184 148 133 124 107 105 104 134 170 167 166 142 133 133 127 127 80 39 22 83 76 68 193
214 191 191 186 191 220 222 172 113 19 28 21 8 1 349 358 4 202 168 163 150 147 145 136 131 113 115 98 94 89 92 102 113 123 141 148 109 84 105 67 87 150 103
221 208 193 201 205 207 206 175 149 50 66 42 31 20 13 20 31 16 25 80 126 148 148 132 128 135 125 116 105 96 86 73 65 109 142 88 91 113 118 128 80 69 61
186 184 199 197 197 186 186 128 175 60 69 64 53 30 28 34 56 54 24 43 39 65 107 98 105 115 119 102 104 113 104 96 57 15 231 87 97 102 97 81 74 74 72
129 139 154 160 156 169 137 134 158 102 107 93 68 48 38 35 55 75 62 51 55 63 71 71 82 64 79 82 83 93 92 125 205 227 98 86 95 92 93 85 78 73 82